Location: Unspecified
(0.0000°N, 0.0000°E)
Time: 01:25:50
(UTC+00:00)

Altair - Pass Details

Date: 25 November 2019
Orbit: 1502 x 1682 km, 47.2° (Epoch: 10 December)

Event Time Altitude Azimuth Distance (km) Brightness Sun altitude
Rises 09:56:23 0° 322° (NW) 4,710 9.7 56.0°
Reaches altitude 10° 09:59:23 10° 322° (NW) 3,750 9.3 56.5°
Maximum altitude 10:08:58 85° 51° (NE) 1,618 8.9 58.3°
Drops below altitude 10° 10:18:58 10° 139° (SE) 3,899 10.3 60.1°
Sets 10:22:09 0° 139° (SE) 4,904 10.6 60.7°
